FW4469 Weather Reports


Display with metric or nautical units.
time (UTC)temp
F
wind
direction
speed
MPH
gust
MPH
rain 1hr
in
rain 24hr
in
rain mn
in
humidity
%
barometer
mb
20260904171008 59 319 5.0 15.0 0.00 0.20 0.20 74 1016.2
20260904170003 60 316 4.0 12.0 0.00 0.20 0.20 73 1016.3
20260904165004 60 318 4.0 10.0 0.00 0.20 0.20 72 1016.1
20260904164008 61 325 4.0 9.0 0.00 0.20 0.20 69 1016.1
20260904163223 63 320 4.0 9.0 0.00 0.20 0.20 69 1016.1
20260904162008 59 316 4.0 10.0 0.00 0.20 0.20 73 1016.0
20260904161008 59 322 4.0 13.0 0.00 0.20 0.20 73 1015.6
20260904160003 59 321 4.0 11.0 0.00 0.20 0.20 72 1016.0
20260904155009 59 313 5.0 14.0 0.00 0.20 0.20 72 1015.7
20260904154003 59 312 6.0 18.0 0.00 0.20 0.20 71 1015.6
20260904153005 59 312 5.0 16.0 0.00 0.20 0.20 71 1015.7
20260904152003 59 311 5.0 13.0 0.00 0.20 0.20 70 1015.7
20260904151223 60 313 5.0 11.0 0.00 0.20 0.20 70 1015.8
20260904150003 60 329 5.0 13.0 0.00 0.20 0.20 70 1015.8
20260904145008 60 327 4.0 15.0 0.00 0.20 0.20 70 1015.7
20260904144218 60 319 4.0 15.0 0.00 0.20 0.20 69 1015.6
20260904143003 60 317 4.0 12.0 0.00 0.20 0.20 69 1015.3
20260904142008 60 324 4.0 10.0 0.00 0.20 0.20 69 1015.3
20260904141008 60 319 5.0 13.0 0.00 0.20 0.20 68 1015.3
20260904140218 60 318 5.0 13.0 0.00 0.20 0.20 68 1015.1
20260904135008 61 324 5.0 15.0 0.00 0.20 0.20 66 1015.0
20260904134003 60 317 6.0 16.0 0.00 0.20 0.20 67 1014.9
20260904133003 61 322 5.0 12.0 0.00 0.20 0.20 69 1015.1
20260904132003 61 314 4.0 10.0 0.00 0.20 0.20 69 1015.0
20260904131004 61 324 4.0 12.0 0.00 0.20 0.20 69 1015.0
20260904130003 61 318 5.0 14.0 0.00 0.20 0.20 67 1014.6
20260904125003 61 309 5.0 14.0 0.00 0.20 0.20 69 1014.7
20260904124008 62 320 5.0 16.0 0.00 0.20 0.20 66 1014.2
20260904123008 62 314 6.0 15.0 0.00 0.20 0.20 65 1014.1
20260904122008 62 312 5.0 12.0 0.00 0.20 0.20 66 1014.2
20260904121009 62 319 5.0 13.0 0.00 0.20 0.20 68 1014.0
20260904120008 61 313 5.0 16.0 0.00 0.20 0.20 68 1014.0
20260904115008 62 319 5.0 14.0 0.00 0.20 0.20 66 1013.8
20260904114003 61 308 5.0 16.0 0.00 0.20 0.20 69 1013.6
20260904113003 61 324 5.0 14.0 0.00 0.20 0.20 66 1013.6
20260904112003 61 317 5.0 14.0 0.00 0.20 0.20 67 1013.5
20260904111223 62 320 5.0 13.0 0.00 0.20 0.20 67 1013.5
20260904110008 60 315 5.0 14.0 0.00 0.20 0.20 70 1013.4
20260904105003 60 318 5.0 15.0 0.00 0.20 0.20 70 1013.4
20260904104217 59 323 5.0 13.0 0.00 0.20 0.20 73 1013.0
20260904103217 60 322 5.0 14.0 0.00 0.20 0.20 72 1013.2
20260904102003 59 327 5.0 14.0 0.00 0.20 0.20 71 1013.0
20260904101217 59 337 5.0 17.0 0.00 0.19 0.19 74 1013.0
20260904100008 59 318 6.0 13.0 0.00 0.19 0.19 76 1013.0
20260904095003 59 313 5.0 16.0 0.00 0.19 0.19 75 1012.7
20260904094008 59 308 6.0 16.0 0.00 0.19 0.19 79 1012.8
20260904093008 58 312 6.0 13.0 0.00 0.19 0.19 80 1012.9
20260904092003 57 311 5.0 15.0 0.00 0.19 0.19 81 1012.8
20260904091013 57 313 4.0 10.0 0.00 0.19 0.19 83 1012.6
20260904090004 57 302 5.0 14.0 0.00 0.19 0.19 83 1012.4
20260904085008 57 317 5.0 13.0 0.00 0.19 0.19 83 1011.8
20260904084222 57 319 5.0 12.0 0.00 0.19 0.19 85 1011.8
20260904083003 57 305 5.0 14.0 0.00 0.19 0.19 88 1011.9
20260904082011 56 310 5.0 10.0 0.00 0.19 0.19 93 1011.8
20260904081008 56 307 5.0 9.0 0.00 0.19 0.19 96 1011.8
20260904080003 56 307 4.0 9.0 0.00 0.19 0.19 97 1011.8
20260904075006 56 310 4.0 11.0 0.00 0.19 0.19 97 1011.5
20260904074005 56 305 4.0 11.0 0.00 0.19 0.19 97 1011.3
20260904073008 56 306 4.0 10.0 0.00 0.19 0.19 97 1011.4
20260904072003 56 311 4.0 11.0 0.00 0.19 0.19 98 1011.2
20260904071003 56 310 5.0 10.0 0.00 0.19 0.19 98 1010.8
20260904070003 56 314 5.0 11.0 0.01 0.19 0.19 98 1010.9
20260904065005 57 303 4.0 11.0 0.01 0.19 0.19 98 1010.7
20260904064223 57 312 5.0 11.0 0.01 0.19 0.19 98 1011.0
20260904063008 57 308 5.0 13.0 0.02 0.19 0.19 98 1010.8
20260904062008 57 306 5.0 11.0 0.03 0.19 0.19 98 1010.3
20260904061008 57 307 5.0 10.0 0.06 0.19 0.19 98 1010.0
20260904060003 57 311 5.0 10.0 0.06 0.19 0.19 98 1009.9
20260904055009 58 305 5.0 11.0 0.06 0.19 0.19 97 1009.9
20260904054008 58 314 5.0 13.0 0.06 0.18 0.18 97 1009.6
20260904053008 59 312 5.0 11.0 0.07 0.18 0.18 98 1009.8
20260904052003 59 312 5.0 11.0 0.05 0.16 0.16 98 1009.6
20260904051006 59 313 4.0 10.0 0.04 0.13 0.13 98 1009.4
20260904050009 60 304 5.0 10.0 0.04 0.13 0.13 98 1009.4
20260904045003 60 311 6.0 13.0 0.03 0.12 0.12 97 1009.2
20260904044003 61 315 5.0 15.0 0.03 0.12 0.12 98 1009.4
20260904043008 61 322 5.0 11.0 0.02 0.11 0.11 98 1009.4
20260904042003 62 327 6.0 17.0 0.02 0.11 0.11 98 1009.2
20260904041008 62 312 5.0 12.0 0.02 0.10 0.10 98 1008.7
20260904040003 62 315 4.0 11.0 0.01 0.09 0.09 99 1009.0
20260904035008 63 328 5.0 15.0 0.01 0.09 0.09 99 1008.5
20260904034011 63 323 6.0 17.0 0.02 0.09 0.09 99 1008.5
20260904033003 63 315 5.0 14.0 0.03 0.09 0.09 99 1008.4
20260904032008 64 315 5.0 18.0 0.04 0.09 0.09 99 1008.4
20260904031003 64 328 5.0 11.0 0.04 0.08 0.08 99 1008.3
20260904030218 64 322 4.0 13.0 0.06 0.08 0.08 98 1008.4
20260904025220 64 320 5.0 15.0 0.08 0.08 0.08 98 1008.6
20260904024003 64 324 6.0 14.0 0.07 0.07 0.07 98 1008.7
20260904023003 64 318 5.0 12.0 0.06 0.06 0.06 98 1008.3
20260904022008 64 329 6.0 12.0 0.05 0.05 0.05 98 1008.6
20260904021008 64 323 4.0 11.0 0.04 0.04 0.04 97 1008.7
20260904020008 64 331 4.0 9.0 0.02 0.02 0.02 97 1008.6
20260904015217 64 330 4.0 10.0 0.00 0.00 0.00 96 1008.6
20260904014003 64 325 4.0 10.0 0.00 0.00 0.00 96 1008.9
20260904013003 63 324 4.0 10.0 0.00 0.00 0.00 96 1009.0
20260904012003 63 318 4.0 10.0 0.00 0.00 0.00 96 1009.2
20260904011008 63 321 3.0 10.0 0.00 0.00 0.00 96 1009.1
20260904010003 62 319 4.0 11.0 0.00 0.00 0.00 95 1009.2
20260904005003 62 320 4.0 9.0 0.00 0.00 0.00 94 1009.3
20260904004225 62 322 4.0 10.0 0.00 0.00 0.00 94 1009.5
20260904003217 62 336 4.0 8.0 0.00 0.00 0.00 93 1009.6
20260904002003 62 318 3.0 7.0 0.00 0.00 0.00 92 1009.9
20260904001008 62 324 4.0 9.0 0.00 0.00 0.00 91 1010.1
20260904000008 62 329 3.0 12.0 0.00 0.00 0.00 90 1010.4
20260903235008 62 323 3.0 7.0 0.00 0.00 0.00 88 1010.6
20260903234008 62 320 3.0 9.0 0.00 0.00 0.00 87 1010.8
20260903233217 62 321 3.0 7.0 0.00 0.00 0.00 86 1010.8
20260903232006 62 319 3.0 7.0 0.00 0.00 0.00 87 1010.7
20260903231003 62 321 3.0 9.0 0.00 0.00 0.00 88 1011.1
20260903230008 62 312 3.0 8.0 0.00 0.00 0.00 89 1011.3
20260903225223 61 325 3.0 7.0 0.00 0.00 0.00 87 1011.7
20260903224003 61 329 3.0 7.0 0.00 0.00 0.00 86 1012.3
20260903223008 61 321 3.0 7.0 0.00 0.00 0.00 85 1012.6
20260903222003 61 322 3.0 8.0 0.00 0.00 0.00 84 1012.8
20260903221006 61 329 3.0 7.0 0.00 0.00 0.00 84 1012.9
20260903220008 61 327 3.0 8.0 0.00 0.00 0.00 83 1013.0
20260903215010 61 325 3.0 9.0 0.00 0.00 0.00 83 1013.3
20260903214008 61 323 3.0 8.0 0.00 0.00 0.00 82 1013.4
20260903213003 61 325 4.0 9.0 0.00 0.00 0.00 82 1013.6
20260903212008 61 330 4.0 10.0 0.00 0.00 0.00 82 1013.7
20260903211218 61 323 3.0 7.0 0.00 0.00 0.00 83 1013.8
20260903210008 61 327 3.0 7.0 0.00 0.00 0.00 83 1013.8
20260903205011 61 329 4.0 9.0 0.00 0.00 0.00 82 1014.0
20260903204009 61 325 4.0 14.0 0.00 0.00 0.00 81 1014.0
20260903203222 61 332 4.0 14.0 0.00 0.00 0.00 81 1014.5
20260903202008 61 325 4.0 8.0 0.00 0.00 0.00 81 1014.7
20260903201003 62 329 3.0 7.0 0.00 0.00 0.00 81 1014.7
20260903200003 62 327 4.0 10.0 0.00 0.00 0.00 80 1014.5
20260903195217 62 322 3.0 8.0 0.00 0.00 0.00 80 1014.5
20260903194008 62 325 4.0 8.0 0.00 0.00 0.00 79 1014.6
20260903193008 62 325 4.0 9.0 0.00 0.00 0.00 78 1014.6
20260903192003 63 324 3.0 8.0 0.00 0.00 0.00 76 1015.0
20260903191008 63 324 4.0 8.0 0.00 0.00 0.00 75 1015.0
20260903190217 63 325 4.0 9.0 0.00 0.00 0.00 75 1015.0
20260903185008 64 320 4.0 8.0 0.00 0.00 0.00 74 1015.1
20260903184008 64 322 4.0 8.0 0.00 0.00 0.00 73 1015.3
20260903183008 64 314 4.0 10.0 0.00 0.00 0.00 72 1015.2
20260903182008 65 316 4.0 9.0 0.00 0.00 0.00 70 1015.3
20260903181008 65 316 4.0 11.0 0.00 0.00 0.00 68 1015.3
20260903180008 67 309 4.0 14.0 0.00 0.00 0.00 66 1015.7
20260903175003 67 314 4.0 13.0 0.00 0.00 0.00 65 1015.5
20260903174003 68 311 4.0 9.0 0.00 0.00 0.00 64 1015.3
20260903173008 69 313 5.0 11.0 0.00 0.00 0.00 63 1015.5
20260903172008 69 315 4.0 12.0 0.00 0.00 0.00 61 1015.6